Simultaneous Nadir Overpasses (SNOs) Predictions

Prediction of SNOs between GOES-16 and NOAA-20 Satellite Orbit:

Table of predicted SNOs for the next 14.0 days since TLE Epoch: 10/16/2021
Index Date Time (GOES-16) GOES-16 Lat,Lon NOAA-20 Lat,Lon Distance(km) Time Diff (sec)
1 10/16/2021 18:29:26 0.05, -75.20 -0.10, -75.90 80.22 80
2 10/17/2021 18:08:01 0.06, -75.21 0.89, -71.37 437.11 80
3 10/19/2021 06:32:28 -0.05, -75.22 0.26, -76.64 161.41 80
4 10/20/2021 06:11:02 -0.05, -75.23 -0.73, -72.10 356.26 80
5 10/21/2021 18:35:39 0.04, -75.25 -0.41, -77.41 245.67 80
6 10/22/2021 18:14:13 0.05, -75.26 0.58, -72.87 272.41 80
7 10/24/2021 06:38:41 -0.03, -75.28 0.58, -78.14 325.03 80
8 10/25/2021 06:17:15 -0.04, -75.30 -0.42, -73.60 193.01 80
9 10/26/2021 18:41:50 0.03, -75.32 -0.78, -78.90 408.48 80
10 10/27/2021 18:20:26 0.04, -75.34 0.28, -74.38 109.90 80
11 10/29/2021 06:44:52 -0.03, -75.37 0.94, -79.64 486.69 80
